This demonstration page uses our WeatherBlox Daily Observations layout. Learn more.

Left ArrowRight Arrow

41.86663, -103.66717

Hourly Observations for June 2, 2022

Temp ( °F °C ) Dew Point ( °F °C ) Humidity (%) Winds ( mph kmh ) Pressure ( in mb ) Visibility ( mi km ) Precip ( " mm )
12:53 am 00:53 Clear 51 10.6 43 6.1 74 74 SSE 6 9 30.07 1018 10 16 0.00 0.00
1:53 am 01:53 Clear 50 10 42 5.6 74 74 SSE 3 6 30.06 1018 10 16 0.00 0.00
2:53 am 02:53 Clear 48 8.9 42 5.6 80 80 E 3 6 30.06 1018 10 16 0.00 0.00
3:53 am 03:53 Clear 46 7.8 41 5 83 83 NE 3 6 30.06 1018 10 16 0.00 0.00
4:53 am 04:53 Clear 45 7.2 41 5 86 86 NNE 5 7 30.06 1018 10 16 0.00 0.00
5:53 am 05:53 Sunny 44 6.7 41 5 89 89 NNE 3 6 30.06 1018 9 14 0.00 0.00
6:53 am 06:53 Sunny 50 10 45 7.2 83 83 Calm 30.05 1018 10 16 0.00 0.00
7:53 am 07:53 Sunny 54 12.2 46 7.8 75 75 ESE 3 6 30.06 1018 10 16 0.00 0.00
8:53 am 08:53 Sunny 59 15 48 8.9 67 67 VRB 3 6 30.06 1018 10 16 0.00 0.00
9:53 am 09:53 Sunny 64 17.8 49 9.4 58 58 VRB 5 7 30.04 1017 10 16 0.00 0.00
10:53 am 10:53 Partly Cloudy 68 20 48 8.9 49 49 VRB 3 6 30.04 1017 10 16 0.00 0.00
11:53 am 11:53 Mostly Sunny 71 21.7 45 7.2 39 39 undefined N/A 30.02 1017 10 16 0.00 0.00
12:53 pm 12:53 Mostly Cloudy 72 22.2 43 6.1 35 35 SSE 7 11 30.00 1016 10 16 0.00 0.00
1:53 pm 13:53 Mostly Sunny 73 22.8 43 6.1 34 34 VRB 5 7 29.98 1015 10 16 0.00 0.00
2:53 pm 14:53 Mostly Cloudy 72 22.2 41 5 33 33 NE 5 7 29.98 1015 10 16 0.00 0.00
3:53 pm 15:53 Sunny 74 23.3 46 7.8 37 37 ENE 16 26 29.97 1015 10 16 0.00 0.00
4:53 pm 16:53 Sunny 75 23.9 44 6.7 33 33 NE 8 13 29.96 1014 10 16 0.00 0.00
5:53 pm 17:53 Mostly Sunny 74 23.3 43 6.1 33 33 ENE 13 20 29.95 1014 10 16 0.00 0.00
6:53 pm 18:53 Sunny 72 22.2 43 6.1 35 35 ENE 13 20 29.95 1014 10 16 0.00 0.00
7:53 pm 19:53 Sunny 67 19.4 44 6.7 44 44 NE 10 17 29.96 1014 10 16 0.00 0.00
8:53 pm 20:53 Clear 63 17.2 45 7.2 52 52 ENE 12 19 29.97 1015 10 16 0.00 0.00
9:53 pm 21:53 Clear 59 15 46 7.8 62 62 ENE 9 15 29.98 1015 10 16 0.00 0.00
10:53 pm 22:53 Mostly Cloudy 58 14.4 45 7.2 62 62 SE 6 9 29.98 1015 10 16 0.00 0.00
11:53 pm 23:53 Mostly Cloudy 58 14.4 46 7.8 65 65 ENE 9 15 29.97 1015 10 16 0.00 0.00

Powered by AerisWeather